| time (UTC) | temp F | wind direction | speed MPH | gust MPH | rain 1hr in | rain 24hr in | rain mn in | humidity % | barometer mb |
| 20260504050539 | 67 | 63 | 1.0 | 6.0 | 0.00 | 0.00 | 0.00 | 71 | 1019.5 |
| 20260504045538 | 68 | 0 | 3.0 | 8.0 | 0.00 | 0.00 | 0.00 | 71 | 1019.3 |
| 20260504045037 | 68 | 188 | 2.0 | 8.0 | 0.00 | 0.00 | 0.00 | 70 | 1019.5 |
| 20260504044553 | 68 | 25 | 2.0 | 8.0 | 0.00 | 0.00 | 0.00 | 70 | 1019.6 |
| 20260504044039 | 68 | 182 | 3.0 | 7.0 | 0.00 | 0.00 | 0.00 | 69 | 1019.5 |
| 20260504043539 | 68 | 203 | 3.0 | 7.0 | 0.00 | 0.00 | 0.00 | 69 | 1019.5 |
| 20260504043055 | 68 | 201 | 1.0 | 6.0 | 0.00 | 0.00 | 0.00 | 68 | 1019.5 |
| 20260504042540 | 68 | 0 | 2.0 | 7.0 | 0.00 | 0.00 | 0.00 | 67 | 1019.6 |
| 20260504042040 | 68 | 30 | 1.0 | 9.0 | 0.00 | 0.00 | 0.00 | 67 | 1019.6 |
| 20260504041548 | 69 | 111 | 4.0 | 9.0 | 0.00 | 0.00 | 0.00 | 66 | 1019.5 |
| 20260504041038 | 69 | 185 | 2.0 | 8.0 | 0.00 | 0.00 | 0.00 | 66 | 1019.5 |
| 20260504040539 | 69 | 55 | 2.0 | 12.0 | 0.00 | 0.00 | 0.00 | 65 | 1019.7 |
| 20260504040054 | 69 | 40 | 1.0 | 12.0 | 0.00 | 0.00 | 0.00 | 65 | 1019.7 |
| 20260504035538 | 69 | 0 | 3.0 | 12.0 | 0.00 | 0.00 | 0.00 | 64 | 1019.7 |
| 20260504035040 | 69 | 205 | 2.0 | 6.0 | 0.00 | 0.00 | 0.00 | 64 | 1019.5 |
| 20260504034556 | 69 | 0 | 1.0 | 6.0 | 0.00 | 0.00 | 0.00 | 64 | 1019.7 |
| 20260504034043 | 70 | 109 | 1.0 | 7.0 | 0.00 | 0.00 | 0.00 | 63 | 1019.5 |
| 20260504033540 | 70 | 209 | 2.0 | 7.0 | 0.00 | 0.00 | 0.00 | 63 | 1019.6 |
| 20260504033049 | 70 | 181 | 2.0 | 9.0 | 0.00 | 0.00 | 0.00 | 62 | 1019.6 |
| 20260504032541 | 70 | 42 | 0.0 | 9.0 | 0.00 | 0.00 | 0.00 | 62 | 1019.6 |
| 20260504032041 | 70 | 198 | 3.0 | 8.0 | 0.00 | 0.00 | 0.00 | 61 | 1019.5 |
| 20260504031546 | 71 | 226 | 2.0 | 8.0 | 0.00 | 0.00 | 0.00 | 61 | 1019.4 |
| 20260504031040 | 71 | 101 | 2.0 | 7.0 | 0.00 | 0.00 | 0.00 | 60 | 1019.4 |
| 20260504030539 | 71 | 172 | 0.0 | 7.0 | 0.00 | 0.00 | 0.00 | 59 | 1019.2 |
| 20260504030051 | 71 | 44 | 3.0 | 7.0 | 0.00 | 0.00 | 0.00 | 58 | 1019.3 |
| 20260504025540 | 71 | 59 | 1.0 | 8.0 | 0.00 | 0.00 | 0.00 | 57 | 1019.3 |
| 20260504025039 | 72 | 32 | 4.0 | 8.0 | 0.00 | 0.00 | 0.00 | 56 | 1019.2 |
| 20260504024552 | 72 | 200 | 2.0 | 6.0 | 0.00 | 0.00 | 0.00 | 55 | 1019.2 |
| 20260504024038 | 72 | 131 | 2.0 | 6.0 | 0.00 | 0.00 | 0.00 | 54 | 1019.2 |
| 20260504023539 | 71 | 203 | 1.0 | 4.0 | 0.00 | 0.00 | 0.00 | 53 | 1019.2 |
| 20260504023045 | 72 | 122 | 1.0 | 5.0 | 0.00 | 0.00 | 0.00 | 52 | 1019.2 |
| 20260504022538 | 71 | 103 | 1.0 | 5.0 | 0.00 | 0.00 | 0.00 | 52 | 1019.3 |
| 20260504022041 | 71 | 98 | 0.0 | 2.0 | 0.00 | 0.00 | 0.00 | 52 | 1019.2 |
| 20260504021542 | 72 | 0 | 0.0 | 2.0 | 0.00 | 0.00 | 0.00 | 52 | 1019.3 |
| 20260504021039 | 72 | 201 | 0.0 | 2.0 | 0.00 | 0.00 | 0.00 | 51 | 1019.1 |
| 20260504020537 | 72 | 0 | 0.0 | 1.0 | 0.00 | 0.00 | 0.00 | 51 | 1019.1 |
| 20260504020046 | 72 | 0 | 0.0 | 1.0 | 0.00 | 0.00 | 0.00 | 51 | 1019.1 |
| 20260504015540 | 72 | 0 | 0.0 | 1.0 | 0.00 | 0.00 | 0.00 | 51 | 1018.9 |
| 20260504015040 | 72 | 0 | 0.0 | 1.0 | 0.00 | 0.00 | 0.00 | 50 | 1018.8 |
| 20260504014542 | 73 | 0 | 0.0 | 1.0 | 0.00 | 0.00 | 0.00 | 49 | 1018.9 |
| 20260504014036 | 73 | 0 | 0.0 | 1.0 | 0.00 | 0.00 | 0.00 | 50 | 1018.8 |
| 20260504013539 | 73 | 0 | 0.0 | 2.0 | 0.00 | 0.00 | 0.00 | 49 | 1018.6 |
| 20260504013101 | 73 | 0 | 0.0 | 3.0 | 0.00 | 0.00 | 0.00 | 48 | 1018.6 |
| 20260504012539 | 74 | 210 | 0.0 | 3.0 | 0.00 | 0.00 | 0.00 | 47 | 1018.7 |
| 20260504012039 | 74 | 0 | 0.0 | 3.0 | 0.00 | 0.00 | 0.00 | 47 | 1018.7 |
| 20260504011545 | 74 | 0 | 1.0 | 4.0 | 0.00 | 0.00 | 0.00 | 46 | 1018.7 |
| 20260504011039 | 75 | 82 | 1.0 | 5.0 | 0.00 | 0.00 | 0.00 | 46 | 1018.5 |
| 20260504010539 | 75 | 226 | 0.0 | 5.0 | 0.00 | 0.00 | 0.00 | 46 | 1018.6 |
| 20260504010043 | 75 | 205 | 1.0 | 4.0 | 0.00 | 0.00 | 0.00 | 45 | 1018.5 |
| 20260504005546 | 75 | 163 | 0.0 | 5.0 | 0.00 | 0.00 | 0.00 | 45 | 1018.5 |
| 20260504005039 | 75 | 56 | 1.0 | 5.0 | 0.00 | 0.00 | 0.00 | 45 | 1018.6 |
| 20260504004546 | 75 | 51 | 1.0 | 4.0 | 0.00 | 0.00 | 0.00 | 44 | 1018.8 |
| 20260504004040 | 76 | 0 | 1.0 | 7.0 | 0.00 | 0.00 | 0.00 | 44 | 1018.8 |
| 20260504003538 | 76 | 0 | 0.0 | 7.0 | 0.00 | 0.00 | 0.00 | 44 | 1018.7 |
| 20260504003048 | 76 | 223 | 3.0 | 7.0 | 0.00 | 0.00 | 0.00 | 43 | 1018.6 |
| 20260504002538 | 76 | 168 | 2.0 | 7.0 | 0.00 | 0.00 | 0.00 | 44 | 1018.7 |
| 20260504002037 | 77 | 60 | 3.0 | 7.0 | 0.00 | 0.00 | 0.00 | 43 | 1018.7 |
| 20260504001549 | 77 | 45 | 1.0 | 5.0 | 0.00 | 0.00 | 0.00 | 44 | 1018.7 |
| 20260504001041 | 77 | 56 | 2.0 | 6.0 | 0.00 | 0.00 | 0.00 | 42 | 1018.6 |
| 20260504000538 | 78 | 204 | 0.0 | 8.0 | 0.00 | 0.00 | 0.00 | 41 | 1018.7 |
| 20260504000050 | 78 | 0 | 1.0 | 8.0 | 0.00 | 0.00 | 0.00 | 41 | 1018.9 |
| 20260503235540 | 78 | 191 | 2.0 | 7.0 | 0.00 | 0.00 | 0.00 | 41 | 1018.8 |
| 20260503235039 | 78 | 0 | 1.0 | 7.0 | 0.00 | 0.00 | 0.00 | 42 | 1018.9 |
| 20260503234544 | 78 | 198 | 2.0 | 7.0 | 0.00 | 0.00 | 0.00 | 42 | 1019.0 |
| 20260503234039 | 79 | 148 | 1.0 | 5.0 | 0.00 | 0.00 | 0.00 | 41 | 1019.1 |
| 20260503233539 | 79 | 220 | 0.0 | 8.0 | 0.00 | 0.00 | 0.00 | 41 | 1019.2 |
| 20260503233045 | 79 | 195 | 2.0 | 8.0 | 0.00 | 0.00 | 0.00 | 40 | 1019.2 |
| 20260503232540 | 79 | 0 | 1.0 | 7.0 | 0.00 | 0.00 | 0.00 | 40 | 1019.3 |
| 20260503232038 | 79 | 234 | 0.0 | 9.0 | 0.00 | 0.00 | 0.00 | 40 | 1019.2 |
| 20260503231554 | 79 | 204 | 3.0 | 9.0 | 0.00 | 0.00 | 0.00 | 40 | 1019.1 |
| 20260503231038 | 79 | 207 | 1.0 | 8.0 | 0.00 | 0.00 | 0.00 | 40 | 1019.2 |
| 20260503230542 | 78 | 137 | 2.0 | 8.0 | 0.00 | 0.00 | 0.00 | 40 | 1019.2 |
| 20260503230045 | 78 | 192 | 3.0 | 13.0 | 0.00 | 0.00 | 0.00 | 40 | 1019.4 |
| 20260503225538 | 79 | 201 | 6.0 | 13.0 | 0.00 | 0.00 | 0.00 | 39 | 1019.4 |
| 20260503225038 | 79 | 236 | 1.0 | 10.0 | 0.00 | 0.00 | 0.00 | 41 | 1019.1 |
| 20260503224547 | 79 | 75 | 3.0 | 11.0 | 0.00 | 0.00 | 0.00 | 39 | 1019.3 |
| 20260503224038 | 79 | 225 | 3.0 | 11.0 | 0.00 | 0.00 | 0.00 | 38 | 1019.2 |
| 20260503223538 | 79 | 192 | 3.0 | 7.0 | 0.00 | 0.00 | 0.00 | 39 | 1019.3 |
| 20260503223043 | 79 | 200 | 1.0 | 9.0 | 0.00 | 0.00 | 0.00 | 39 | 1019.5 |
| 20260503222539 | 79 | 249 | 2.0 | 9.0 | 0.00 | 0.00 | 0.00 | 37 | 1019.5 |
| 20260503222038 | 79 | 51 | 2.0 | 9.0 | 0.00 | 0.00 | 0.00 | 37 | 1019.5 |
| 20260503221556 | 79 | 209 | 3.0 | 9.0 | 0.00 | 0.00 | 0.00 | 37 | 1019.7 |
| 20260503221041 | 79 | 262 | 3.0 | 9.0 | 0.00 | 0.00 | 0.00 | 37 | 1019.7 |
| 20260503220539 | 79 | 210 | 2.0 | 9.0 | 0.00 | 0.00 | 0.00 | 36 | 1019.9 |
| 20260503220042 | 79 | 221 | 2.0 | 8.0 | 0.00 | 0.00 | 0.00 | 36 | 1019.9 |
| 20260503215539 | 79 | 214 | 3.0 | 8.0 | 0.00 | 0.00 | 0.00 | 35 | 1019.9 |
| 20260503215038 | 80 | 202 | 2.0 | 8.0 | 0.00 | 0.00 | 0.00 | 37 | 1020.2 |
| 20260503214547 | 80 | 236 | 1.0 | 9.0 | 0.00 | 0.00 | 0.00 | 37 | 1020.1 |
| 20260503214038 | 80 | 0 | 0.0 | 10.0 | 0.00 | 0.00 | 0.00 | 39 | 1020.4 |
| 20260503213539 | 79 | 246 | 3.0 | 10.0 | 0.00 | 0.00 | 0.00 | 38 | 1020.4 |
| 20260503213048 | 79 | 248 | 4.0 | 10.0 | 0.00 | 0.00 | 0.00 | 37 | 1020.5 |
| 20260503212538 | 79 | 230 | 1.0 | 8.0 | 0.00 | 0.00 | 0.00 | 38 | 1020.5 |
| 20260503212039 | 78 | 203 | 3.0 | 9.0 | 0.00 | 0.00 | 0.00 | 37 | 1020.7 |
| 20260503211550 | 79 | 186 | 4.0 | 10.0 | 0.00 | 0.00 | 0.00 | 37 | 1020.8 |
| 20260503211038 | 79 | 224 | 0.0 | 10.0 | 0.00 | 0.00 | 0.00 | 36 | 1020.9 |
| 20260503210539 | 79 | 214 | 2.0 | 8.0 | 0.00 | 0.00 | 0.00 | 35 | 1020.9 |
| 20260503210043 | 78 | 40 | 3.0 | 11.0 | 0.00 | 0.00 | 0.00 | 38 | 1020.9 |
| 20260503205539 | 78 | 168 | 4.0 | 11.0 | 0.00 | 0.00 | 0.00 | 35 | 1021.3 |
| 20260503205039 | 79 | 0 | 2.0 | 10.0 | 0.00 | 0.00 | 0.00 | 35 | 1021.2 |
| 20260503204549 | 79 | 47 | 2.0 | 8.0 | 0.00 | 0.00 | 0.00 | 36 | 1021.4 |
| 20260503204038 | 78 | 68 | 3.0 | 8.0 | 0.00 | 0.00 | 0.00 | 39 | 1021.8 |
| 20260503203539 | 78 | 100 | 4.0 | 8.0 | 0.00 | 0.00 | 0.00 | 39 | 1021.6 |
| 20260503203049 | 78 | 260 | 1.0 | 7.0 | 0.00 | 0.00 | 0.00 | 39 | 1021.8 |
| 20260503202538 | 79 | 200 | 4.0 | 7.0 | 0.00 | 0.00 | 0.00 | 38 | 1022.0 |
| 20260503202037 | 78 | 0 | 0.0 | 10.0 | 0.00 | 0.00 | 0.00 | 40 | 1022.0 |
| 20260503201549 | 78 | 0 | 2.0 | 10.0 | 0.00 | 0.00 | 0.00 | 40 | 1021.9 |
| 20260503201038 | 78 | 0 | 0.0 | 8.0 | 0.00 | 0.00 | 0.00 | 42 | 1022.0 |
| 20260503200538 | 78 | 126 | 3.0 | 9.0 | 0.00 | 0.00 | 0.00 | 38 | 1022.1 |
| 20260503200047 | 78 | 188 | 4.0 | 12.0 | 0.00 | 0.00 | 0.00 | 38 | 1022.2 |
| 20260503195538 | 78 | 223 | 2.0 | 12.0 | 0.00 | 0.00 | 0.00 | 39 | 1022.4 |
| 20260503195039 | 79 | 12 | 3.0 | 12.0 | 0.00 | 0.00 | 0.00 | 40 | 1022.5 |
| 20260503194555 | 78 | 59 | 2.0 | 11.0 | 0.00 | 0.00 | 0.00 | 38 | 1022.5 |
| 20260503194039 | 78 | 210 | 3.0 | 11.0 | 0.00 | 0.00 | 0.00 | 41 | 1022.5 |
| 20260503193539 | 78 | 0 | 1.0 | 7.0 | 0.00 | 0.00 | 0.00 | 41 | 1022.5 |
| 20260503193051 | 78 | 50 | 1.0 | 8.0 | 0.00 | 0.00 | 0.00 | 43 | 1022.7 |
| 20260503192539 | 77 | 85 | 1.0 | 8.0 | 0.00 | 0.00 | 0.00 | 41 | 1022.6 |
| 20260503192039 | 77 | 226 | 3.0 | 8.0 | 0.00 | 0.00 | 0.00 | 40 | 1022.6 |
| 20260503191608 | 77 | 0 | 1.0 | 7.0 | 0.00 | 0.00 | 0.00 | 42 | 1022.8 |
| 20260503191041 | 77 | 212 | 1.0 | 7.0 | 0.00 | 0.00 | 0.00 | 39 | 1023.0 |
| 20260503190539 | 77 | 123 | 3.0 | 7.0 | 0.00 | 0.00 | 0.00 | 38 | 1023.0 |
| 20260503190048 | 76 | 45 | 1.0 | 8.0 | 0.00 | 0.00 | 0.00 | 39 | 1023.0 |
| 20260503185537 | 76 | 255 | 3.0 | 8.0 | 0.00 | 0.00 | 0.00 | 37 | 1023.1 |
| 20260503185039 | 76 | 0 | 4.0 | 8.0 | 0.00 | 0.00 | 0.00 | 41 | 1023.2 |
| 20260503184547 | 77 | 227 | 3.0 | 7.0 | 0.00 | 0.00 | 0.00 | 43 | 1023.2 |
| 20260503184041 | 77 | 36 | 0.0 | 6.0 | 0.00 | 0.00 | 0.00 | 45 | 1023.2 |
| 20260503183538 | 77 | 245 | 0.0 | 7.0 | 0.00 | 0.00 | 0.00 | 42 | 1023.4 |
| 20260503183044 | 77 | 203 | 2.0 | 8.0 | 0.00 | 0.00 | 0.00 | 41 | 1023.6 |
| 20260503182540 | 76 | 219 | 1.0 | 8.0 | 0.00 | 0.00 | 0.00 | 43 | 1023.6 |
| 20260503182041 | 76 | 183 | 2.0 | 5.0 | 0.00 | 0.00 | 0.00 | 44 | 1023.7 |
| 20260503181549 | 76 | 243 | 1.0 | 4.0 | 0.00 | 0.00 | 0.00 | 46 | 1023.8 |
| 20260503181039 | 76 | 0 | 0.0 | 6.0 | 0.00 | 0.00 | 0.00 | 44 | 1023.9 |
| 20260503180539 | 76 | 0 | 1.0 | 7.0 | 0.00 | 0.00 | 0.00 | 45 | 1024.0 |
| 20260503180056 | 75 | 196 | 2.0 | 7.0 | 0.00 | 0.00 | 0.00 | 47 | 1024.2 |
| 20260503175538 | 75 | 231 | 0.0 | 7.0 | 0.00 | 0.00 | 0.00 | 48 | 1024.4 |
| 20260503175038 | 75 | 227 | 2.0 | 7.0 | 0.00 | 0.00 | 0.00 | 49 | 1024.4 |
| 20260503174552 | 75 | 163 | 1.0 | 7.0 | 0.00 | 0.00 | 0.00 | 50 | 1024.6 |
| 20260503174039 | 74 | 242 | 0.0 | 7.0 | 0.00 | 0.00 | 0.00 | 49 | 1024.7 |
| 20260503173539 | 74 | 242 | 2.0 | 7.0 | 0.00 | 0.00 | 0.00 | 50 | 1024.7 |
| 20260503173044 | 74 | 119 | 2.0 | 11.0 | 0.00 | 0.00 | 0.00 | 49 | 1024.8 |
| 20260503172539 | 74 | 0 | 3.0 | 11.0 | 0.00 | 0.00 | 0.00 | 50 | 1024.9 |
| 20260503172106 | 74 | 208 | 4.0 | 7.0 | 0.00 | 0.00 | 0.00 | 47 | 1025.0 |
| 20260503171550 | 74 | 226 | 2.0 | 6.0 | 0.00 | 0.00 | 0.00 | 51 | 1025.1 |
| 20260503171039 | 74 | 0 | 1.0 | 7.0 | 0.00 | 0.00 | 0.00 | 52 | 1025.1 |
| 20260503170540 | 74 | 68 | 2.0 | 7.0 | 0.00 | 0.00 | 0.00 | 50 | 1025.0 |
| 20260503160104 | 72 | 0 | 0.0 | 8.0 | 0.00 | 0.00 | 0.00 | 51 | 1025.6 |
| 20260503150538 | 70 | 0 | 0.0 | 1.0 | 0.00 | 0.00 | 0.00 | 59 | 1025.8 |
| 20260503131038 | 63 | 0 | 0.0 | 0.0 | 0.00 | 0.00 | 0.00 | 75 | 1024.8 |
| 20260503130538 | 62 | 0 | 0.0 | 0.0 | 0.00 | 0.00 | 0.00 | 77 | 1024.9 |
| 20260503110537 | 0 | 0.0 | 0.0 | 0.00 | 0.00 | 0.00 | 1023.8 | ||
| 20260503081553 | 55 | 0 | 0.0 | 0.0 | 0.00 | 0.00 | 0.00 | 84 | 1023.3 |
| 20260503081038 | 55 | 0 | 0.0 | 0.0 | 0.00 | 0.00 | 0.00 | 84 | 1023.5 |
| 20260503080543 | 56 | 0 | 0.0 | 0.0 | 0.00 | 0.00 | 0.00 | 84 | 1023.6 |
| 20260503080104 | 56 | 0 | 0.0 | 0.0 | 0.00 | 0.00 | 0.00 | 84 | 1023.8 |
| 20260503072538 | 55 | 0 | 0.0 | 0.0 | 0.00 | 0.00 | 0.00 | 83 | 1023.7 |
| 20260503072041 | 55 | 0 | 0.0 | 0.0 | 0.00 | 0.00 | 0.00 | 85 | 1023.8 |
| 20260503071556 | 55 | 0 | 0.0 | 0.0 | 0.00 | 0.00 | 0.00 | 83 | 1024.2 |
| 20260503071038 | 55 | 0 | 0.0 | 0.0 | 0.00 | 0.00 | 0.00 | 83 | 1024.2 |
| 20260503070539 | 55 | 0 | 0.0 | 0.0 | 0.00 | 0.00 | 0.00 | 83 | 1024.1 |